Ithaca, NY

6:28 PM EST on February 27, 2017 (GMT -0500)
Tompkins County

Weather History for KITH - July, 2014

Change the Weather History Date:

Saturday, July 26, 2014

  Actual Average Record
Temperature  
Mean Temperature 66 °F -  
Max Temperature 79 °F 79 °F 94 °F (1938)
Min Temperature 53 °F 58 °F 43 °F (1976)
Cooling Degree Days 1    
Growing Degree Days 16 (Base 50)    
Moisture  
Dew Point 57 °F    
Average Humidity 74    
Maximum Humidity 100    
Minimum Humidity 46    
Precipitation  
Precipitation 0.00 in - - ()
Sea Level Pressure  
Sea Level Pressure 29.95 in    
Wind  
Wind Speed 4 mph (SSE)    
Max Wind Speed 8 mph    
Max Gust Speed -    
Visibility 10 miles    
Events      
Averages and records for this station are not official NWS values.
T = Trace of Precipitation, MM = Missing Value Source: NWS Daily Summary

Daily Weather History Graph

Daily Weather History Graph

Search for Another Location

Airport or City:

Trip Planner

Search our weather history database for the weather conditions in past years. The results will help you decide how hot, cold, wet, or windy it might be!

Date:

Astronomy

Jul. 26, 2014 Rise Set
Actual Time 5:52 AM EDT 8:32 PM EDT
Civil Twilight 5:19 AM EDT 9:04 PM EDT
Nautical Twilight 4:38 AM EDT 9:45 PM EDT
Astronomical Twilight 3:51 AM EDT 10:31 PM EDT
Moon 5:44 AM EDT (7/26) 8:03 PM EDT (7/26)
Length of Visible Light 15h 45m
Length of Day
14h 40m
Waning Crescent, 0% of the Moon is Illuminated
Jul 26
Waning Crescent
Jul 26
New
Aug 3
First Quarter
Aug 10
Full
Aug 17
Last Quarter

Hourly Weather History & Observations

Time (EDT) Temp. Dew Point Humidity Pressure Visibility Wind Dir Wind Speed Gust Speed Precip Events Conditions
12:56 AM 55.9 °F 54.9 °F 96% 30.02 in 10.0 mi Calm Calm - N/A   Clear
1:56 AM 54.9 °F 54.0 °F 97% 30.01 in 8.0 mi ESE 3.5 mph - N/A   Clear
2:56 AM 54.0 °F 54.0 °F 100% 30.00 in 7.0 mi East 4.6 mph - N/A   Clear
3:56 AM 54.9 °F 54.0 °F 97% 29.99 in 8.0 mi East 5.8 mph - N/A   Clear
4:56 AM 54.0 °F 52.9 °F 96% 29.99 in 8.0 mi East 3.5 mph - N/A   Clear
5:56 AM 54.0 °F 52.9 °F 96% 29.99 in 7.0 mi East 5.8 mph - N/A   Clear
6:30 AM 53.6 °F 53.6 °F 100% 30.00 in 10.0 mi East 4.6 mph - N/A   Clear
6:56 AM 55.9 °F 54.9 °F 96% 29.99 in 10.0 mi East 4.6 mph - N/A   Partly Cloudy
7:56 AM 61.0 °F 56.8 °F 86% 30.01 in 10.0 mi Calm Calm - N/A   Scattered Clouds
8:56 AM 66.9 °F 56.8 °F 70% 30.00 in 10.0 mi South 4.6 mph - N/A   Mostly Cloudy
9:56 AM 70.9 °F 56.8 °F 61% 29.99 in 10.0 mi West 5.8 mph - N/A   Mostly Cloudy
11:56 AM 75.9 °F 57.9 °F 54% 29.97 in 10.0 mi SSW 6.9 mph - N/A   Scattered Clouds
2:56 PM 77.9 °F 56.8 °F 48% 29.94 in 10.0 mi SW 4.6 mph - N/A   Mostly Cloudy
3:56 PM 77.9 °F 56.8 °F 48% 29.93 in 10.0 mi West 6.9 mph - N/A   Mostly Cloudy
4:56 PM 77.9 °F 57.9 °F 50% 29.91 in 10.0 mi South 6.9 mph - N/A   Mostly Cloudy
5:56 PM 79.0 °F 56.8 °F 46% 29.88 in 10.0 mi SSW 8.1 mph - N/A   Scattered Clouds
6:56 PM 74.8 °F 59.0 °F 58% 29.88 in 10.0 mi SSE 5.8 mph - N/A   Scattered Clouds
7:56 PM 72.9 °F 61.9 °F 68% 29.88 in 10.0 mi Calm Calm - N/A   Scattered Clouds
8:56 PM 70.9 °F 59.0 °F 66% 29.88 in 10.0 mi SSE 5.8 mph - N/A   Scattered Clouds
9:56 PM 70.9 °F 57.9 °F 63% 29.88 in 10.0 mi South 8.1 mph - N/A   Scattered Clouds
10:56 PM 70.0 °F 59.0 °F 68% 29.87 in 10.0 mi South 5.8 mph - N/A   Overcast
11:56 PM 68.9 °F 59.9 °F 73% 29.85 in 10.0 mi South 5.8 mph - N/A   Partly Cloudy